COSMOS 336

Satellite information

Favourite Embed

Satellite Type and Status

PAYLOADIN ORBIT

Key statistics

Satellite COSMOS 336 at a glance.

Uptime

20173

Days in orbit

Revolutions

≈ 12.5

Per day

Orbit

LEO

Low Earth Orbit

Inclination

74.0

Latest

Satellite identification and parameters

Extended collection of information and parameters for COSMOS 336.

Object identification

Identified? True

Debris? False

Object name: COSMOS 336

International designator: 1970-036A

Object number (NORAD): 4383

Object ID (CCSDS): 4383

Country: COMMONWEALTH OF INDEPENDENT STATES (CIS)

Current information (Y/N): Y

RCS size: MEDIUM

Orbital parameters

Period: 115.416 minutes

Inclination: 74.0286 deg

SMA: 7852.449 km

Apoapsis: 1486.007 km

Periapsis: 1462.622 km

RAAN: 77.4601 deg

Eccentricy: 0.001489

Argument of periapsis: 277.3323 deg

Mean anomaly: 200.5271 deg

Mean motion: 12.47656508 rev/day

Mean motion (dot): -0.00000015 rev/day2

B* drag term: 0.0000029455 1/REarth

Two-line elements (TLE)

Creation date: July 17, 2025, 5:14 p.m.

Reference frame: TEME

Reference center: EARTH

Epoch: July 17, 2025, 3:31 a.m. UTC

TLE line 0: 0 COSMOS 336

TLE line 1: 1 04383U 70036A 25198.14656925 -.00000015 00000-0 29455-5 0 9994

TLE line 2: 2 04383 74.0286 77.4601 0014890 277.3323 200.5271 12.47656508515104

Live tracking on map

Real-time ground track for satellite COSMOS 336.

In-orbit conjunctions

A list of the most updated potential collisions computed for object COSMOS 336.

Target Orbit TCA Probability of collision Miss distance Type
DELTA 1 DEB LEO 2025-01-16 16:19:02 0.0001059409 426.0 (m) DEBRIS

Associated space launch

Military communications satellites

COSMOS 336 was lifted into orbit during the mission ‘Kosmos-3M | Strela-1M 1-8’, on board a Kosmos-3M space rocket.

The launch took place on April 25, 1970, 5:09 p.m. from 132/2.

For more information about the launch, click the button.

Launch to space Kosmos-3M | Strela-1M 1-8
Kosmos-3M | Strela-1M 1-8

Agency: N/A

Status: Launch Successful

Launch date: April 25, 1970, 5:09 p.m. UTC

Rocket: Kosmos-3M

Launch pad: 132/2

Location: Plesetsk Cosmodrome, Russian Federation

...

Latest news about this satellite

There are no fresh news available about this satellite. Check back as we update our databases every day.


Newsletter sign-up

Weekly statistics, charts and insights to help you stay on top of the space industry.